Regional Weather Roundup
Issued by NWS Upton, NY

Current Version | Previous Version | Text Only | Print | Product List | Glossary Off
Versions: 1 2 3 4 5 6 7 8 9 10 11 12 13 14 15 16 17 18 19 20 21 22 23 24 25 26 27 28 29 30 31 32 33 34 35 36 37 38 39 40 41 42 43 44 45 46 47 48 49 50
000 ASUS41 KOKX 292308 RWROKX REGIONAL WEATHER ROUNDUP NATIONAL WEATHER SERVICE NEW YORK NY 700 PM EDT WED JUL 29 2015 NOTE: "FAIR" INDICATES FEW OR NO CLOUDS BELOW 12,000 FEET WITH NO SIGNIFICANT WEATHER AND/OR OBSTRUCTIONS TO VISIBILITY. NYZ071-072-176-178-NJZ106-104-300000- NEW YORK CITY METRO AREA CITY SKY/WX TMP DP RH WIND PRES REMARKS CENTRAL PARK SUNNY 88 68 51 MISG 29.93F HX 91 LAGUARDIA APRT PTSUNNY 90 67 46 S12 29.90S HX 93 KENNEDY INTL MOSUNNY 83 71 67 S20 29.92F NEWARK/LIBERTY PTSUNNY 92 66 42 SW9 29.89F HX 94 BRNX BOT. GARD N/A 86 68 54 SE2 29.91S TETERBORO MOSUNNY 90 67 46 S10 29.88F HX 93 $$ NYZ177-179-078>081-300000- LONG ISLAND NEW YORK CITY SKY/WX TMP DP RH WIND PRES REMARKS FARMINGDALE SUNNY 85 70 60 SW10 29.93S ISLIP MOSUNNY 84 70 62 SW12 29.91F SHIRLEY SUNNY 84 71 65 SW12 29.94S WESTHAMPTON SUNNY 82 70 66 SW10 29.95S MONTAUK POINT N/A 83 67 58 SW8 29.93F $$ NYZ052-065-067-300000- HUDSON VALLEY CITY SKY/WX TMP DP RH WIND PRES REMARKS WHITE PLAINS MOSUNNY 85 67 54 S9 29.92S NEWBURGH MOSUNNY 90 64 43 W9 29.93S HX 91 MONTGOMERY SUNNY 89 68 49 W5 29.91F HX 93 POUGHKEEPSIE SUNNY 92 62 36 W5 29.89S HX 92 ALBANY MOSUNNY 90 64 42 S10 29.88F HX 91 $$ NJZ001-105-106-008-010-013-015-019>022-104-300000- NEW JERSEY CITY SKY/WX TMP DP RH WIND PRES REMARKS NEWARK/LIBERTY PTSUNNY 92 66 42 SW9 29.89F HX 94 TETERBORO MOSUNNY 90 67 46 S10 29.88F HX 93 CALDWELL SUNNY 92 62 36 VRB5 29.90F HX 92 MORRISTOWN MOSUNNY 91 64 40 NW9 29.91F HX 93 SOMERVILLE SUNNY 91 65 41 VRB3 29.89F HX 93 SUSSEX SUNNY 87 65 47 VRB3 29.93F ANDOVER N/A 87 69 54 CALM 29.94S HX 91 TRENTON SUNNY 87 70 56 SW8 29.91F HX 92 MILLVILLE MOSUNNY 81 72 74 VRB3 29.96F ATLANTIC CITY MOSUNNY 84 73 69 SW8 29.95F HX 90 WRIGHTSTOWN MOSUNNY 86 72 63 SW10 29.90F HX 92 TOMS RIVER N/A 84 73 70 S8 29.94R HX 91 BELMAR MOSUNNY 84 73 70 S8 29.93S HX 91 $$ PAZ047>061-062-071-300000- EASTERN PENNSYLVANIA CITY SKY/WX TMP DP RH WIND PRES REMARKS PHILADELPHIA MOSUNNY 89 71 55 S16 29.93F HX 95 ALLENTOWN SUNNY 90 62 39 S9 29.92F HX 90 SCRANTON SUNNY 88 62 41 SW7 29.94S $$ CTZ002-004>006-009-010-012-RIZ004-006-007-MAZ004-011-015-300000- SOUTHERN NEW ENGLAND IN CT CITY SKY/WX TMP DP RH WIND PRES REMARKS BRADLEY INTL MOSUNNY 90 65 43 SW8 29.89S HX 92 HARTFORD SUNNY 92 61 35 W9 29.88F HX 92 DANBURY SUNNY 87 64 46 S8 29.93F WTRBRY/OXFORD NOT AVBL BRIDGEPORT SUNNY 87 70 56 S12 29.91S HX 92 MERIDEN SUNNY 90 65 43 S7 29.90S HX 92 NEW HAVEN SUNNY 86 68 54 SW6 29.91S CHESTER FAIR 84 70 61 SW3 29.94S GROTON SUNNY 80 70 71 SW7 29.90F WILLIMANTIC SUNNY 88 67 49 SW7 29.91R HX 91 IN RI CITY SKY/WX TMP DP RH WIND PRES REMARKS PROVIDENCE MOSUNNY 86 69 56 SW13 29.90S HX 90 BLOCK ISLAND N/A 79 72 78 SW14 29.93F WESTERLY SUNNY 82 70 66 W5 29.92F IN MA CITY SKY/WX TMP DP RH WIND PRES REMARKS BOSTON MOSUNNY 91 65 41 W7 29.87S HX 93 WORCESTER SUNNY 85 65 51 W6 29.95S WESTFIELD SUNNY 90 64 42 W7 29.90R HX 91 PROVINCETOWN SUNNY 79 64 61 SW14 29.89S NANTUCKET CLEAR 75 71 87 SW10 29.93S $$ ANZ330-335-338-340-345-350-353-355-300000- COASTAL MARINE OBSERVATIONS STATION/POSITION TIME SKY/WX TEMP WIND PRES VSBY WAVE AIR SEA DIR/SP/G HT/PER (UTC) (F) (DEG/KT/KT) (MB) (MI) (FT/S) NY HARB ENTRANCE 2250 80 78 210/ 19/ 23 1012.3 3/ 3 4S FIRE IS NOT AVBL 20S FIRE ISLAND 2250 78 75 220/ 14/ 16 1012.9 2/10 GREAT SOUTH BAY 2200 81 82 220/ 12/ 16 N/A 23SW MTP 2250 77 75 230/ 12/ 14 1013.1 3/ 9 HUDSON CANYON NOT AVBL KINGS POINT 2200 84 76 N/A EXECUTION ROCKS 2200 83 190/ 6/ 8 N/A CENTRAL LI SOUND NOT AVBL EASTERN LI SOUND 2200 82 70 210/ 6/ 8 N/A ROBBINS REEF 2200 84 N/A $$ >>>>>>>>>>>>>>>>>>>>>>>>>>>> KEY <<<<<<<<<<<<<<<<<<<<<<<<<<< > < > SKY/WX - SKY CONDITION/PRESENT WEATHER < > TMP - TEMPERATURE IN FAHRENHEIT < > DP - DEWPOINT IN FAHRENHEIT < > RH - RELATIVE HUMIDITY IN PERCENT < > WIND - DIRECTION AND SPEED IN MPH < > PRES - MEAN SEA LEVEL PRESSURE IN INCHES OF HG < > WCI - WIND CHILL INDEX < > VSB - VISIBILITY IN MILES < > HX - HEAT INDEX < > TC - TEMPERATURE IN CELSIUS < > VRB - VARIABLE WIND DIRECTION < > < >>>>>>>>>>>>>>>>>>>>>>>>>>>> KEY <<<<<<<<<<<<<<<<<<<<<<<<<<<

USA.gov is the U.S. government's official web portal to all federal, state and local government web resources and services.